Tracking 30995 objects as of 5-Jul-2025
HD Live streaming from Space Station
objects crossing your sky now

ARIANE 5 R/B

Track ARIANE 5 R/B now!


NORAD ID: 26612
Int'l Code: 2000-072E
Perigee: 669.2 km
Apogee: 39,495.4 km
Inclination: 6.0 °
Period: 713.6 minutes
Semi major axis: 26453 km
RCS: 20.7538 m2 (large)
Launch date: November 16, 2000
Source: France (FR)
Launch site: FRENCH GUIANA (FRGUI)

Note: This is a ROCKET BODY
Your satellite tracking list
CARTOSAT 3
Track 1 satellite(s)




NASA's NSSDC Master Catalog

Two Line Element Set (TLE):
1 26612U 00072E   25186.43469071  .00000150  00000-0  51244-2 0  9996
2 26612   6.0444 170.5870 7338624 225.3852  43.9841  2.01782544181636
Source of the keplerian elements: AFSPC